Tiempo atmosférico en la estación meteorológica de Becerreá, Lugo (1080 m.)



Fecha
DESCASC
Temp. máxima en grados centígrados (hora)
DESCASC
Temp. mínima en grados centígrados (hora)
DESCASC
Temp. media en grados centígrados
DESCASC
Racha de viento máxima en m/sg (hora)
DESCASC
Velocidad máxima media en intervalos de 10 minutos(hora)
DESCASC
Precipitaciones diarias en mm
DESCASC
Precipitaciones de 00:00 a 06:00 en mm
DESCASC
Precipitaciones de 06:00 a 12:00 en mm
DESCASC
Precipitaciones de 12:00 a 18:00 en mm
DESCASC
Precipitaciones de 18:00 a 24:00 en mm
DESCASC
08-12-2019 9.2 (11:00) 2.6 (23:59) 5.9 10 (05:10) 4.17 (17:20) 13.6 1.2 9.4 3 0
07-12-2019 9.9 (15:30) 5.2 (02:30) 7.5 6.11 (17:10) 3.89 (03:30) 0.2 0 0 0 0.2
06-12-2019 8.6 (16:10) 4.9 (05:00) 6.8 8.61 (01:20) 5.28 (18:30) 0 0 0 0 0
05-12-2019 7.3 (13:50) 1.1 (00:00) 4.2 10.83 (03:50) 5 (23:20) 0 0 0 0 0
04-12-2019 5.1 (11:30) 0.1 (00:00) 2.6 10.28 (07:00) 6.11 (01:50) 0 0 0 0 0
03-12-2019 3.1 (14:20) -1.5 (-00:0) 0.8 8.89 (22:50) 5 (22:10) 0 0 0 0 0
02-12-2019 4.1 (13:50) -0.4 (00:00) 1.8 13.33 (06:30) 5.56 (06:10) 0.4 0.4 0 0 0
01-12-2019 4.6 (14:40) 1.6 (00:00) 3.1 11.11 (18:50) 5.28 (00:50) 2.2 1.4 0.2 0 0.6
30-11-2019 10 (00:30) 3.7 (00:00) 6.9 15.83 (07:30) 6.11 (07:30) 19 6.6 8.2 2.6 1.6
29-11-2019 10.8 (14:00) 5.6 (00:00) 8.2 10.83 (23:30) 5 (23:40) 0 0 0 0 0
28-11-2019 9.5 (18:40) 7.2 (00:00) 8.3 14.44 (19:20) 5.56 (17:30) 40.6 6.4 19.2 11.6 3.4
27-11-2019 7.2 (23:59) 5.1 (00:00) 6.1 16.94 (01:10) 6.11 (00:20) 23.6 6.8 1.2 7.8 7.8
26-11-2019 10.7 (03:10) 5 (00:00) 7.8 18.33 (15:30) 7.5 (04:50) 12.4 0.4 0.4 6.2 5.4
25-11-2019 9.8 (23:59) 6.6 (00:00) 8.2 14.44 (21:50) 6.67 (21:50) 7.6 5.8 1.6 0.2 0
24-11-2019 8.9 (23:50) 2.6 (00:00) 5.7 17.22 (18:30) 8.06 (18:20) 6.8 0 0.2 1.2 5.4
23-11-2019 4.2 (15:40) 1.9 (00:00) 3 17.5 (00:30) 7.5 (02:20) 14.2 10 2 2.2 0
22-11-2019 8 (11:30) 2.3 (00:00) 5.1 19.44 (10:10) 8.33 (10:10) 25.6 1 7.4 5.6 11.6
21-11-2019 5.5 (14:50) 1.9 (00:00) 3.7 10.56 (22:50) 5.28 (22:50) 2.2 1.6 0.2 0.4 0
20-11-2019 5.4 (14:30) 2.4 (00:00) 3.9 10.28 (16:30) 4.44 (12:40) 3.6 0.4 0 1 2.2
19-11-2019 5.8 (15:00) 0.9 (00:00) 3.4 9.17 (21:40) 4.44 (21:40) 5 0 0 1.2 3.8
18-11-2019 3.3 (14:40) 0.9 (00:00) 2.1 6.39 (00:40) 2.5 (05:30) 2.4 1 1.4 0 0
17-11-2019 4.7 (05:50) 1 (00:00) 2.8 11.39 (13:10) 5.28 (14:30) 36.4 13.8 14 2.6 6
16-11-2019 2.5 (23:59) -1.1 (-00:0) 0.7 9.17 (23:50) 4.44 (23:50) 18.2 0 1.2 7.2 9.8
15-11-2019 -0.1 (15:00) -1.3 (-00:0) -0.7 10 (00:20) 5.56 (00:10) 4.4 0 0.2 4 0.2
14-11-2019 3 (00:00) -1.1 (-00:0) 0.9 18.61 (14:30) 10 (15:10) 29 4.8 0 16.8 7.4
13-11-2019 9.8 (00:10) 3 (00:00) 6.4 15 (23:50) 6.94 (23:50) 14.2 6 0.2 0.4 7.6
12-11-2019 9.7 (23:59) 2.4 (00:00) 6 14.17 (17:20) 6.39 (17:20) 52.8 0 3.4 13.6 35.8
11-11-2019 7 (08:30) 2.3 (20:40) 4.6 8.61 (04:00) 4.44 (05:30) 4 2.6 1.4 0 0
10-11-2019 4 (23:59) 1.2 (00:00) 2.6 13.89 (11:50) 7.22 (12:20) 24.4 3.2 9.2 9 3

Gráficas

Temp. máximas Temp. mínimas Temp. medias Precipitaciones Rachas de viento máximas Velocidades máximas media en intervalos de 10 minutos

Datos horarios

Fecha y hora oficial Temperatura (ºC) Velocidad del viento (km/h) Dirección del viento Racha (km/h) Dirección de racha Precipitación (mm) Presión (hPa) Tendencia (hPa) Humedad (%)
2019-12-09 23:00:00 3.4 4 Este 10 Sudeste 0 -- -- 80
2019-12-09 22:00:00 4 5 Este 15 Este 0 -- -- 89
2019-12-09 21:00:00 3 6 Este 16 Este 0 -- -- 100
2019-12-09 20:00:00 2.8 0 Calma 6 Nordeste 0 -- -- 99
2019-12-09 19:00:00 3.8 3 Norte 8 Oeste 0 -- -- 100
2019-12-09 18:00:00 4.4 5 Oeste 9 Oeste 0 -- -- 99
2019-12-09 17:00:00 4.8 3 Nordeste 5 Este 0 -- -- 99
2019-12-09 16:00:00 5.3 3 Este 8 Sudeste 0 -- -- 99
2019-12-09 15:00:00 5.2 2 Este 10 Norte 0 -- -- 99
2019-12-09 14:00:00 5.4 4 Nordeste 11 Nordeste 0 -- -- 100
2019-12-09 13:00:00 5 0 Calma 10 Noroeste 0 -- -- 100
2019-12-09 12:00:00 4.5 4 Nordeste 8 Nordeste 0 -- -- 100
2019-12-09 11:00:00 3.9 3 Norte 10 Norte 0 -- -- 100
2019-12-09 10:00:00 3.3 0 Calma 15 Oeste 0 -- -- 100
2019-12-09 09:00:00 3.1 6 Noroeste 18 Oeste 0 -- -- 100
2019-12-09 08:00:00 2.7 6 Noroeste 15 Sudoeste 0 -- -- 100
2019-12-09 07:00:00 2.6 8 Oeste 16 Oeste 0 -- -- 100
2019-12-09 06:00:00 2.3 8 Oeste 18 Oeste 0 -- -- 100
2019-12-09 05:00:00 2 9 Oeste 16 Sudoeste 0 -- -- 100
2019-12-09 04:00:00 2 14 Oeste 21 Sudoeste 0 -- -- 100
2019-12-09 03:00:00 2.3 13 Oeste 16 Oeste 0 -- -- 100
2019-12-09 02:00:00 2.3 15 Sudoeste 20 Sudoeste 0 -- -- 100
2019-12-09 01:00:00 2.1 12 Sudoeste 15 Sudoeste 0 -- -- 100
2019-12-09 00:00:00 2.6 8 Sudoeste 20 Sudoeste 0 -- -- 100
2019-12-08 23:00:00 3.4 11 Oeste 21 Sudoeste 0 -- -- 100
2019-12-08 22:00:00 4.1 8 Oeste 23 Sudoeste 0 -- -- 100
2019-12-08 21:00:00 4.7 10 Oeste 19 Oeste 0 -- -- 100
2019-12-08 20:00:00 5 7 Sudoeste 25 Oeste 0 -- -- 100
2019-12-08 19:00:00 6 9 Oeste 22 Noroeste 0 -- -- 100
2019-12-08 18:00:00 7.3 14 Oeste 29 Oeste 0 -- -- 100
2019-12-08 17:00:00 8.3 14 Oeste 33 Oeste 0 -- -- 100
2019-12-08 16:00:00 8.7 14 Oeste 26 Noroeste 0.4 -- -- 100
2019-12-08 15:00:00 9 10 Oeste 27 Oeste 0.6 -- -- 100
2019-12-08 14:00:00 9.1 12 Oeste 25 Oeste 0.6 -- -- 100
2019-12-08 13:00:00 9 9 Oeste 23 Sudoeste 1.4 -- -- 100
2019-12-08 12:00:00 9.1 8 Sudoeste 22 Oeste 1.6 -- -- 100
2019-12-08 11:00:00 9.2 10 Sudoeste 23 Oeste 1.4 -- -- 100
2019-12-08 10:00:00 9 8 Sudoeste 24 Sudoeste 4.4 -- -- 100
2019-12-08 09:00:00 8.9 12 Sudoeste 26 Sudoeste 1.2 -- -- 100
2019-12-08 08:00:00 8.5 9 Sur 23 Sudoeste 0.8 -- -- 100
2019-12-08 07:00:00 8.5 11 Sudoeste 34 Sudoeste 0 -- -- 100
2019-12-08 06:00:00 8.4 10 Sudoeste 36 Sudoeste 0.2 -- -- 100
2019-12-08 05:00:00 8.3 12 Sudoeste 29 Sudoeste 0.2 -- -- 100
2019-12-08 04:00:00 8.5 11 Sur 28 Sur 0.2 -- -- 100
2019-12-08 03:00:00 8.6 8 Sudoeste 26 Sudoeste 0.2 -- -- 100
2019-12-08 02:00:00 8.6 7 Sur 24 Sudoeste 0 -- -- 100
2019-12-08 01:00:00 8.7 9 Sudoeste 23 Oeste 0.4 -- -- 100
2019-12-08 00:00:00 8.7 8 Sudoeste 22 Sudoeste 0.2 -- -- 100
2019-12-07 23:00:00 8.5 7 Sudoeste 16 Sudoeste 0 -- -- 100
2019-12-07 22:00:00 8.2 5 Sudoeste 17 Sur 0 -- -- 100
2019-12-07 21:00:00 8 6 Sudoeste 17 Sudoeste 0 -- -- 100
2019-12-07 20:00:00 8 5 Sudoeste 15 Sur 0 -- -- 99
2019-12-07 19:00:00 8.1 6 Sudoeste 20 Sur 0 -- -- 97
2019-12-07 18:00:00 7.7 10 Sudoeste 22 Sudoeste 0 -- -- 86
2019-12-07 17:00:00 7.7 11 Sudoeste 21 Oeste 0 -- -- 83
2019-12-07 16:00:00 9.2 5 Sudoeste 12 Sudoeste 0 -- -- 89
2019-12-07 15:00:00 9.2 4 Sur 18 Oeste 0 -- -- 92
2019-12-07 14:00:00 9 5 Sudoeste 16 Sudoeste 0 -- -- 80
2019-12-07 13:00:00 8.4 7 Oeste 20 Sudoeste 0 -- -- 80
2019-12-07 12:00:00 8.7 6 Sudoeste 14 Sudoeste 0 -- -- 74
2019-12-07 11:00:00 8.3 8 Sudoeste 16 Sudoeste 0 -- -- 79
2019-12-07 10:00:00 7.3 13 Sudoeste 15 Oeste 0 -- -- 69
2019-12-07 09:00:00 7.6 8 Sudoeste 13 Sur 0 -- -- 83
2019-12-07 08:00:00 7.1 9 Sudoeste 12 Sudoeste 0 -- -- 63
2019-12-07 07:00:00 7 8 Sudoeste 15 Sudoeste 0 -- -- 74
2019-12-07 06:00:00 6.3 12 Sudoeste 18 Sudoeste 0 -- -- 84
2019-12-07 05:00:00 7.4 9 Sudoeste 15 Oeste 0 -- -- 71
2019-12-07 04:00:00 7 10 Sudoeste 18 Oeste 0 -- -- 74
2019-12-07 03:00:00 6.9 7 Sur 13 Sur 0 -- -- 65
2019-12-07 02:00:00 5.5 4 Sur 12 Oeste 0 -- -- 80
2019-12-07 01:00:00 5.4 7 Sudoeste 15 Sudoeste 0 -- -- 85
2019-12-07 00:00:00 5.6 13 Sudoeste 17 Sudoeste 0 -- -- 87
2019-12-06 23:00:00 6 11 Sudoeste 15 Sudoeste 0 -- -- 83
2019-12-06 22:00:00 5.6 10 Sudoeste 15 Sudoeste 0 -- -- 83
2019-12-06 21:00:00 5.7 11 Oeste 14 Oeste 0 -- -- 87
2019-12-06 20:00:00 5.9 10 Sudoeste 19 Sudoeste 0 -- -- 86
2019-12-06 19:00:00 5.8 15 Sudoeste 25 Oeste 0 -- -- 88
2019-12-06 18:00:00 6.8 9 Oeste 16 Oeste 0 -- -- 88
2019-12-06 17:00:00 7.9 9 Sudoeste 14 Sudoeste 0 -- -- 82
2019-12-06 16:00:00 8.4 9 Sudoeste 18 Sudoeste 0 -- -- 77
2019-12-06 15:00:00 7.5 8 Oeste 21 Sudoeste 0 -- -- 80
2019-12-06 14:00:00 7.4 12 Sudoeste 24 Sudoeste 0 -- -- 82
2019-12-06 13:00:00 8.5 6 Oeste 15 Sudoeste 0 -- -- 79
2019-12-06 12:00:00 7.9 4 Sudoeste 15 Sudoeste 0 -- -- 79
2019-12-06 11:00:00 7.4 5 Sudoeste 13 Sudoeste 0 -- -- 80
2019-12-06 10:00:00 7.4 6 Oeste 13 Sudoeste 0 -- -- 78
2019-12-06 09:00:00 6.2 10 Sudoeste 14 Sudoeste 0 -- -- 82
2019-12-06 08:00:00 5.3 8 Sudoeste 15 Oeste 0 -- -- 88
2019-12-06 07:00:00 6.3 5 Oeste 10 Sur 0 -- -- 80
2019-12-06 06:00:00 5.7 6 Sur 12 Sur 0 -- -- 84
2019-12-06 05:00:00 4.9 0 Calma 10 Sudoeste 0 -- -- 89
2019-12-06 04:00:00 7 6 Sudeste 27 Sudeste 0 -- -- 78
2019-12-06 03:00:00 6.6 18 Sudeste 28 Sudeste 0 -- -- 82
2019-12-06 02:00:00 5.9 18 Sudeste 31 Sudeste 0 -- -- 87
2019-12-06 01:00:00 6.2 15 Sudeste 30 Sudeste 0 -- -- 86
2019-12-06 00:00:00 6.2 17 Sudeste 32 Sudeste 0 -- -- 86
2019-12-05 23:00:00 5.7 17 Sudeste 32 Este 0 -- -- 90
2019-12-05 22:00:00 5.9 16 Sudeste 27 Sudeste 0 -- -- 91
2019-12-05 21:00:00 5.9 14 Sudeste 23 Sudeste 0 -- -- 91
2019-12-05 20:00:00 4.9 13 Sudeste 27 Sudeste 0 -- -- 100
2019-12-05 19:00:00 4.5 7 Este 14 Este 0 -- -- 99
2019-12-05 18:00:00 5.2 6 Este 15 Nordeste 0 -- -- 96
2019-12-05 17:00:00 5.9 7 Este 17 Este 0 -- -- 94
2019-12-05 16:00:00 6.4 6 Este 15 Nordeste 0 -- -- 93
2019-12-05 15:00:00 6.9 5 Este 16 Este 0 -- -- 91
2019-12-05 14:00:00 7.3 5 Este 14 Nordeste 0 -- -- 89
2019-12-05 13:00:00 6.6 5 Este 21 Este 0 -- -- 91
2019-12-05 12:00:00 5.4 10 Este 26 Nordeste 0 -- -- 95
2019-12-05 11:00:00 4.5 11 Este 28 Este 0 -- -- 100
2019-12-05 10:00:00 3.6 10 Nordeste 30 Este 0 -- -- 100
2019-12-05 09:00:00 2.8 13 Nordeste 28 Este 0 -- -- 100
2019-12-05 08:00:00 2.7 14 Este 31 Nordeste 0 -- -- 100
2019-12-05 07:00:00 2.4 14 Nordeste 31 Nordeste 0 -- -- 99
2019-12-05 06:00:00 2.3 12 Nordeste 37 Nordeste 0 -- -- 97
2019-12-05 05:00:00 2.2 14 Nordeste 35 Nordeste 0 -- -- 97
2019-12-05 04:00:00 1.8 15 Nordeste 39 Nordeste 0 -- -- 96
2019-12-05 03:00:00 1.6 12 Nordeste 28 Nordeste 0 -- -- 97
2019-12-05 02:00:00 1.2 13 Nordeste 27 Este 0 -- -- 96
2019-12-05 01:00:00 1.4 13 Este 31 Este 0 -- -- 96
2019-12-05 00:00:00 1.1 14 Este 33 Nordeste 0 -- -- 97
2019-12-04 23:00:00 0.8 13 Nordeste 27 Nordeste 0 -- -- 96
2019-12-04 22:00:00 0.9 10 Nordeste 24 Este 0 -- -- 93
2019-12-04 21:00:00 1.2 11 Nordeste 26 Nordeste 0 -- -- 92
2019-12-04 20:00:00 1.5 10 Nordeste 22 Nordeste 0 -- -- 90
2019-12-04 19:00:00 1.6 10 Nordeste 20 Nordeste 0 -- -- 91
2019-12-04 18:00:00 2.2 8 Nordeste 18 Este 0 -- -- 88
2019-12-04 17:00:00 2.9 5 Nordeste 10 Este 0 -- -- 88
2019-12-04 16:00:00 4.3 4 Nordeste 10 Norte 0 -- -- 77
2019-12-04 15:00:00 4.4 4 Nordeste 10 Norte 0 -- -- 75
2019-12-04 14:00:00 4.6 3 Este 8 Este 0 -- -- 76
2019-12-04 13:00:00 4.8 4 Este 10 Este 0 -- -- 76
2019-12-04 12:00:00 4.7 4 Este 13 Sudeste 0 -- -- 78
2019-12-04 11:00:00 4.4 7 Sudeste 17 Sudeste 0 -- -- 75
2019-12-04 10:00:00 2.9 11 Sur 24 Sudeste 0 -- -- 76
2019-12-04 09:00:00 2 15 Sudeste 27 Sudeste 0 -- -- 80
2019-12-04 08:00:00 1.2 18 Sudeste 33 Sudeste 0 -- -- 85
2019-12-04 07:00:00 0.6 18 Sudeste 37 Sudeste 0 -- -- 89
2019-12-04 06:00:00 0.3 17 Sudeste 35 Sudeste 0 -- -- 87
2019-12-04 05:00:00 0.6 22 Sudeste 37 Sudeste 0 -- -- 83
2019-12-04 04:00:00 0.2 21 Sudeste 35 Sudeste 0 -- -- 84
2019-12-04 03:00:00 0.5 17 Sudeste 32 Sudeste 0 -- -- 80
2019-12-04 02:00:00 1.2 19 Sudeste 33 Sudeste 0 -- -- 76
2019-12-04 01:00:00 1.3 15 Sudeste 32 Sudeste 0 -- -- 76
2019-12-04 00:00:00 1.8 16 Sudeste 32 Sudeste 0 -- -- 73
2019-12-03 23:00:00 1.8 14 Sudeste 32 Sudeste 0 -- -- 72
2019-12-03 22:00:00 2.2 16 Sudeste 28 Sudeste 0 -- -- 68
2019-12-03 21:00:00 2.7 14 Sudeste 21 Sudeste 0 -- -- 70
2019-12-03 20:00:00 1.1 4 Sudeste 8 Sudeste 0 -- -- 94
2019-12-03 19:00:00 0.4 4 Este 8 Este 0 -- -- 95
2019-12-03 18:00:00 0.9 5 Este 9 Este 0 -- -- 91
2019-12-03 17:00:00 2 4 Este 9 Este 0 -- -- 89
2019-12-03 16:00:00 2.6 3 Este 9 Este 0 -- -- 88
2019-12-03 15:00:00 2.8 3 Este 9 Este 0 -- -- 88
2019-12-03 14:00:00 2.9 4 Este 9 Este 0 -- -- 88
2019-12-03 13:00:00 2.2 4 Nordeste 14 Este 0 -- -- 83
2019-12-03 12:00:00 1.7 6 Este 17 Este 0 -- -- 89
2019-12-03 11:00:00 0.5 7 Este 16 Este 0 -- -- 92
2019-12-03 10:00:00 -0.5 9 Este 21 Este 0 -- -- 94
2019-12-03 09:00:00 -1.3 7 Este 23 Nordeste 0 -- -- 97
2019-12-03 08:00:00 -1.4 8 Nordeste 26 Este 0 -- -- 97
2019-12-03 07:00:00 -1.5 8 Este 30 Nordeste 0 -- -- 100
2019-12-03 06:00:00 -1.2 10 Este 27 Este 0 -- -- 99
2019-12-03 05:00:00 -1 12 Este 27 Nordeste 0 -- -- 99
2019-12-03 04:00:00 -0.9 10 Este 28 Este 0 -- -- 99
2019-12-03 03:00:00 -0.9 11 Este 24 Este 0 -- -- 99
2019-12-03 02:00:00 -0.8 9 Este 25 Este 0 -- -- 100
2019-12-03 01:00:00 -0.7 11 Este 23 Nordeste 0 -- -- 100
2019-12-03 00:00:00 -0.4 9 Nordeste 24 Nordeste 0 -- -- 100
2019-12-02 23:00:00 -0.1 7 Este 27 Este 0 -- -- 99
2019-12-02 22:00:00 0.6 12 Este 27 Este 0 -- -- 98
2019-12-02 21:00:00 1.1 10 Nordeste 30 Este 0 -- -- 97
2019-12-02 20:00:00 1.4 12 Nordeste 36 Nordeste 0 -- -- 98
2019-12-02 19:00:00 1.9 12 Nordeste 33 Nordeste 0 -- -- 98
2019-12-02 18:00:00 2.3 12 Nordeste 39 Este 0 -- -- 99
2019-12-02 17:00:00 2.4 15 Nordeste 45 Nordeste 0 -- -- 99
2019-12-02 16:00:00 2.9 15 Nordeste 31 Este 0 -- -- 97
2019-12-02 15:00:00 2.7 18 Este 45 Nordeste 0 -- -- 99
2019-12-02 14:00:00 4 15 Este 37 Este 0 -- -- 100
2019-12-02 13:00:00 3.4 16 Este 40 Este 0 -- -- 100
2019-12-02 12:00:00 3.4 12 Este 39 Este 0 -- -- 100
2019-12-02 11:00:00 3.4 15 Este 46 Este 0 -- -- 100
2019-12-02 10:00:00 3.3 17 Nordeste 42 Nordeste 0 -- -- 100
2019-12-02 09:00:00 2.5 17 Este 42 Nordeste 0 -- -- 100
2019-12-02 08:00:00 2.4 10 Este 29 Este 0 -- -- 100
2019-12-02 07:00:00 2.3 14 Nordeste 48 Norte 0 -- -- 100
2019-12-02 06:00:00 1.8 18 Nordeste 42 Nordeste 0 -- -- 100
2019-12-02 05:00:00 1.7 15 Nordeste 35 Este 0 -- -- 100
2019-12-02 04:00:00 1.4 12 Nordeste 38 Norte 0 -- -- 100
2019-12-02 03:00:00 1.8 16 Este 45 Nordeste 0 -- -- 100
2019-12-02 02:00:00 1.8 17 Nordeste 42 Nordeste 0 -- -- 100
2019-12-02 01:00:00 1.8 14 Nordeste 29 Nordeste 0.4 -- -- 100
2019-12-02 00:00:00 1.8 10 Nordeste 33 Nordeste 0 -- -- 100
2019-12-01 23:00:00 1.7 13 Nordeste 37 Nordeste 0 -- -- 100
2019-12-01 22:00:00 1.7 12 Nordeste 34 Este 0 -- -- 100
2019-12-01 21:00:00 2.1 9 Nordeste 33 Nordeste 0.2 -- -- 100
2019-12-01 20:00:00 2.7 8 Nordeste 35 Norte 0.2 -- -- 100
2019-12-01 19:00:00 3.3 11 Nordeste 40 Nordeste 0.2 -- -- 100
2019-12-01 18:00:00 3.8 11 Nordeste 32 Norte 0 -- -- 100
2019-12-01 17:00:00 3.9 10 Nordeste 38 Este 0 -- -- 100
2019-12-01 16:00:00 4.1 12 Este 36 Este 0 -- -- 100
2019-12-01 15:00:00 4.5 11 Nordeste 26 Nordeste 0 -- -- 100
2019-12-01 14:00:00 4.3 10 Nordeste 28 Nordeste 0 -- -- 100
2019-12-01 13:00:00 4.1 9 Nordeste 29 Este 0 -- -- 100
2019-12-01 12:00:00 4.2 11 Nordeste 30 Nordeste 0 -- -- 100
2019-12-01 11:00:00 3.9 10 Nordeste 27 Nordeste 0.2 -- -- 100
2019-12-01 10:00:00 3.2 9 Nordeste 22 Nordeste 0 -- -- 100
2019-12-01 09:00:00 3.1 7 Este 18 Nordeste 0 -- -- 100
2019-12-01 08:00:00 3 7 Nordeste 18 Sudeste 0 -- -- 100
2019-12-01 07:00:00 2.9 9 Sudeste 22 Sudeste 0 -- -- 100
2019-12-01 06:00:00 2.9 12 Sudeste 29 Sudeste 0 -- -- 100
2019-12-01 05:00:00 3 12 Sudeste 20 Sudeste 0.4 -- -- 100
2019-12-01 04:00:00 3.2 11 Sur 22 Sur 0.6 -- -- 100
2019-12-01 03:00:00 3.4 11 Sur 31 Sur 0.4 -- -- 98
2019-12-01 02:00:00 3.9 12 Sur 31 Sur 0 -- -- 96
2019-12-01 01:00:00 4 18 Sur 39 Sur 0 -- -- 100
2019-12-01 00:00:00 4 15 Sur 36 Sur 0.2 -- -- 100
2019-11-30 23:00:00 3.7 21 Sur 40 Sur 0.2 -- -- 100
2019-11-30 22:00:00 4.2 13 Sur 33 Sudoeste 0.6 -- -- 100
2019-11-30 21:00:00 4.3 13 Sudoeste 40 Sudoeste 0.2 -- -- 100
2019-11-30 20:00:00 4.5 12 Sudoeste 30 Sudoeste 0.4 -- -- 100
2019-11-30 19:00:00 4.2 14 Sudoeste 35 Oeste 0 -- -- 99
2019-11-30 18:00:00 4.5 14 Sudoeste 33 Sudoeste 2 -- -- 99
2019-11-30 17:00:00 5 9 Sudoeste 33 Sudoeste 0.6 -- -- 94
2019-11-30 16:00:00 5.3 12 Oeste 35 Oeste 0 -- -- 87
2019-11-30 15:00:00 6.1 9 Sur 40 Sudoeste 0 -- -- 89
2019-11-30 14:00:00 6.1 10 Sur 29 Sur 0 -- -- 96
2019-11-30 13:00:00 5.6 6 Sur 26 Sudoeste 0 -- -- 100
2019-11-30 12:00:00 5.3 7 Sudeste 28 Sudoeste 0 -- -- 100
2019-11-30 11:00:00 4.4 9 Sur 48 Sudoeste 1.4 -- -- 100
2019-11-30 10:00:00 5.7 10 Sudoeste 46 Oeste 0.8 -- -- 100
2019-11-30 09:00:00 5.9 11 Sudoeste 33 Sudoeste 0.2 -- -- 100
2019-11-30 08:00:00 6.9 19 Oeste 57 Oeste 5 -- -- 100
2019-11-30 07:00:00 9.3 18 Sudoeste 52 Sudoeste 0.8 -- -- 100
2019-11-30 06:00:00 9.5 15 Sur 46 Oeste 0.6 -- -- 100
2019-11-30 05:00:00 9.9 17 Sudoeste 57 Oeste 3.4 -- -- 100
2019-11-30 04:00:00 9.9 19 Sudoeste 49 Sudoeste 0.2 -- -- 100
2019-11-30 03:00:00 9.9 19 Sur 45 Sur 1.6 -- -- 100
2019-11-30 02:00:00 10 19 Sur 48 Sudoeste 0.6 -- -- 100
2019-11-30 01:00:00 9.9 14 Sur 42 Sur 0.2 -- -- 100
2019-11-30 00:00:00 9.9 14 Sur 39 Sur 0 -- -- 99
2019-11-29 23:00:00 9.5 14 Sur 31 Sudeste 0 -- -- 96
2019-11-29 22:00:00 9.4 14 Sur 26 Sur 0 -- -- 85
2019-11-29 21:00:00 9.2 12 Sur 22 Sur 0 -- -- 77
2019-11-29 20:00:00 9.2 7 Sur 22 Sudoeste 0 -- -- 75
2019-11-29 19:00:00 9.1 9 Sur 22 Sur 0 -- -- 73
2019-11-29 18:00:00 9.1 10 Sudoeste 24 Sudoeste 0 -- -- 71
2019-11-29 17:00:00 9.3 7 Sudoeste 19 Sudoeste 0 -- -- 72
2019-11-29 16:00:00 10.6 5 Sudoeste 19 Sudoeste 0 -- -- 76
2019-11-29 15:00:00 10.6 9 Sudoeste 21 Oeste 0 -- -- 83
2019-11-29 14:00:00 10.8 5 Sudoeste 18 Oeste 0 -- -- 87
2019-11-29 13:00:00 10.1 6 Sudoeste 17 Sur 0 -- -- 81
2019-11-29 12:00:00 8.9 5 Sudoeste 14 Sur 0 -- -- 100
2019-11-29 11:00:00 8 6 Sur 15 Sur 0 -- -- 100
2019-11-29 10:00:00 5.9 10 Sudoeste 20 Sudoeste 0 -- -- 100
2019-11-29 09:00:00 5.6 6 Sudoeste 13 Sudoeste 0 -- -- 100
2019-11-29 08:00:00 6.5 4 Sudoeste 10 Oeste 0 -- -- 100
2019-11-29 07:00:00 6.8 5 Sudoeste 18 Sudoeste 0 -- -- 100
2019-11-29 06:00:00 7 7 Sudoeste 16 Sudoeste 0 -- -- 100
2019-11-29 05:00:00 6.4 7 Oeste 17 Sudoeste 0 -- -- 100
2019-11-29 04:00:00 6.6 7 Sudoeste 15 Sudoeste 0 -- -- 100
2019-11-29 03:00:00 7.2 6 Sudoeste 15 Sudoeste 0 -- -- 100
2019-11-29 02:00:00 7.3 5 Sur 14 Sudoeste 0 -- -- 100
2019-11-29 01:00:00 7.7 7 Sudoeste 17 Oeste 0 -- -- 100
2019-11-29 00:00:00 7.9 8 Oeste 26 Oeste 0 -- -- 100
2019-11-28 23:00:00 8.4 8 Sudoeste 27 Oeste 0 -- -- 100
2019-11-28 22:00:00 8.9 10 Oeste 30 Oeste 0.2 -- -- 100
2019-11-28 21:00:00 9.1 10 Sudoeste 38 Sudoeste 0.2 -- -- 100
2019-11-28 20:00:00 9.3 16 Sudoeste 52 Oeste 0.2 -- -- 100
2019-11-28 19:00:00 9.5 11 Sur 50 Oeste 2.8 -- -- 100
2019-11-28 18:00:00 9.2 18 Sudoeste 48 Sudoeste 2.2 -- -- 100
2019-11-28 17:00:00 8.6 16 Sur 50 Sur 1.2 -- -- 100
2019-11-28 16:00:00 8 11 Sur 41 Sudeste 2.8 -- -- 100
2019-11-28 15:00:00 7.6 12 Sudoeste 38 Sudoeste 3.4 -- -- 100
2019-11-28 14:00:00 7.5 12 Sudoeste 42 Sudoeste 2 -- -- 100
2019-11-28 13:00:00 7.4 19 Sudoeste 49 Sur 0 -- -- 100
2019-11-28 12:00:00 7.5 18 Sudoeste 44 Sudoeste 0 -- -- 100
2019-11-28 11:00:00 7.8 12 Oeste 28 Sudoeste 1.2 -- -- 100
2019-11-28 10:00:00 7.4 9 Oeste 27 Sudoeste 6 -- -- 100
2019-11-28 09:00:00 7.7 8 Sudoeste 35 Sudoeste 2.6 -- -- 100
2019-11-28 08:00:00 7.3 6 Sudoeste 20 Sudoeste 5 -- -- 100
2019-11-28 07:00:00 7.8 7 Sudoeste 22 Sudoeste 4.4 -- -- 100
2019-11-28 06:00:00 8 6 Sudoeste 22 Noroeste 1.8 -- -- 100
2019-11-28 05:00:00 8 7 Sudoeste 30 Sudoeste 1.4 -- -- 100
2019-11-28 04:00:00 8.1 13 Sudoeste 42 Oeste 0.8 -- -- 100
2019-11-28 03:00:00 7.9 14 Sudoeste 42 Oeste 0.6 -- -- 100
2019-11-28 02:00:00 7.6 12 Sur 33 Sur 0.8 -- -- 100
2019-11-28 01:00:00 7.4 11 Sur 50 Sur 1 -- -- 100
2019-11-28 00:00:00 7.2 18 Sudoeste 50 Sur 1.2 -- -- 100
2019-11-27 23:00:00 6.9 15 Sudoeste 41 Sudoeste 0.6 -- -- 100
2019-11-27 22:00:00 6.4 11 Sudoeste 32 Sur 2.6 -- -- 100
2019-11-27 21:00:00 6.3 10 Sur 44 Sur 0.6 -- -- 100
2019-11-27 20:00:00 6.1 13 Sur 39 Sudoeste 0.8 -- -- 100
2019-11-27 19:00:00 6.2 13 Sudoeste 43 Sudoeste 2 -- -- 100
2019-11-27 18:00:00 5.9 14 Sudoeste 39 Sudoeste 1.8 -- -- 100
2019-11-27 17:00:00 5.9 11 Sur 45 Sudoeste 3 -- -- 100
2019-11-27 16:00:00 5.4 11 Sudeste 34 Oeste 0 -- -- 100
2019-11-27 15:00:00 5.3 15 Sudoeste 44 Sudoeste 2 -- -- 100
2019-11-27 14:00:00 5.8 11 Sur 43 Sur 1 -- -- 100
2019-11-27 06:00:00 -- -- -- -- -- -- -- -- --
2019-11-27 05:00:00 -- -- -- -- -- -- -- -- --
2019-11-27 04:00:00 -- -- -- -- -- -- -- -- --
2019-11-27 03:00:00 5.6 10 Sur 58 Sur 1.4 -- -- 100
2019-11-27 02:00:00 5.6 18 Sudoeste 61 Sur 1.4 -- -- 100
2019-11-27 01:00:00 5.3 17 Sur 56 Sudoeste 1 -- -- 100
2019-11-27 00:00:00 5.1 19 Sudoeste 52 Sudoeste 0 -- -- 100
2019-11-26 23:00:00 5 19 Sudoeste 52 Sudoeste 0.4 -- -- 100
2019-11-26 22:00:00 5.1 18 Sur 49 Sur 0.8 -- -- 100
2019-11-26 21:00:00 5.3 14 Sur 55 Oeste 0 -- -- 99
2019-11-26 20:00:00 5.6 21 Sudoeste 60 Oeste 0 -- -- 99
2019-11-26 19:00:00 6 22 Sudoeste 59 Sudoeste 4.2 -- -- 100
2019-11-26 18:00:00 7.4 22 Sudoeste 60 Sudoeste 2.8 -- -- 100
2019-11-26 17:00:00 8.2 23 Sudoeste 64 Sudoeste 1.8 -- -- 100
2019-11-26 16:00:00 8.4 21 Sur 66 Sudoeste 1.6 -- -- 96
2019-11-26 15:00:00 9.5 21 Sur 54 Sur 0 -- -- 85
2019-11-26 14:00:00 9.7 22 Sur 44 Sur 0 -- -- 81
2019-11-26 13:00:00 9.3 19 Sudoeste 50 Sur 0 -- -- 85
2019-11-26 12:00:00 9.5 16 Sur 51 Sur 0 -- -- 87
2019-11-26 11:00:00 8.7 14 Sur 46 Sudoeste 0 -- -- 93
2019-11-26 10:00:00 8.4 20 Sudoeste 52 Sur 0 -- -- 94
2019-11-26 09:00:00 8.6 21 Sudoeste 52 Oeste 0 -- -- 95
2019-11-26 08:00:00 9.2 23 Sudoeste 51 Sudoeste 0 -- -- 100
2019-11-26 07:00:00 10 18 Sur 45 Sudoeste 0.4 -- -- 100
2019-11-26 06:00:00 9.9 16 Sur 57 Sur 0.2 -- -- 100
2019-11-26 05:00:00 9.9 24 Sur 56 Sudoeste 0.2 -- -- 100
2019-11-26 04:00:00 10.3 23 Sur 53 Sur 0 -- -- 100
2019-11-26 03:00:00 10.6 20 Sur 53 Sur 0 -- -- 97
2019-11-26 02:00:00 10.4 21 Sur 57 Sur 0 -- -- 98
2019-11-26 01:00:00 9.9 22 Sur 51 Sudoeste 0 -- -- 96
2019-11-26 00:00:00 9.8 19 Sur 46 Sur 0 -- -- 96
2019-11-25 23:00:00 8.8 19 Sur 42 Sur 0 -- -- 88
2019-11-25 22:00:00 8.3 15 Sur 52 Sur 0 -- -- 89
2019-11-25 21:00:00 8 22 Sur 45 Sur 0 -- -- 93
2019-11-25 20:00:00 7.4 17 Sudoeste 36 Sudoeste 0 -- -- 95
2019-11-25 19:00:00 7.5 16 Sudoeste 45 Sudoeste 0 -- -- 98
2019-11-25 18:00:00 7.7 17 Sudoeste 49 Sudoeste 0 -- -- 100
2019-11-25 17:00:00 7.7 17 Sudoeste 36 Sur 0 -- -- 100
2019-11-25 16:00:00 7.8 18 Sudoeste 48 Sur 0 -- -- 100
2019-11-25 15:00:00 7.7 14 Sudoeste 45 Oeste 0 -- -- 100
2019-11-25 14:00:00 7.2 13 Sudoeste 37 Oeste 0 -- -- 100
2019-11-25 13:00:00 6.8 9 Sur 32 Oeste 0.2 -- -- 100
2019-11-25 12:00:00 7.2 11 Sur 35 Sudoeste 0 -- -- 100
2019-11-25 11:00:00 7.4 12 Sur 40 Sudoeste 0.2 -- -- 100
2019-11-25 10:00:00 7.4 13 Sur 32 Sudoeste 0.4 -- -- 100
2019-11-25 09:00:00 7.1 13 Sur 41 Sudoeste 1 -- -- 100
2019-11-25 08:00:00 7 12 Sudoeste 35 Oeste 0 -- -- 100
2019-11-25 07:00:00 6.7 16 Sudoeste 46 Oeste 0 -- -- 100
2019-11-25 06:00:00 7.4 17 Sudoeste 45 Sudoeste 1.8 -- -- 100
2019-11-25 05:00:00 8.2 14 Sudoeste 42 Sudoeste 0.4 -- -- 100
2019-11-25 04:00:00 7.7 13 Sudoeste 49 Sudoeste 0.2 -- -- 100
2019-11-25 03:00:00 7.7 12 Sur 40 Sur 2 -- -- 100
2019-11-25 02:00:00 8.6 19 Sudoeste 48 Sudoeste 0.8 -- -- 100
2019-11-25 01:00:00 8.6 14 Sudoeste 45 Sudoeste 0.6 -- -- 100
2019-11-25 00:00:00 8.9 11 Sur 49 Sudoeste 0 -- -- 100
2019-11-24 23:00:00 8.7 12 Sudoeste 46 Sur 0.2 -- -- 100
2019-11-24 22:00:00 8.3 15 Sur 46 Sudoeste 1 -- -- 100
2019-11-24 21:00:00 8.4 15 Sudoeste 45 Oeste 3 -- -- 100
2019-11-24 20:00:00 8.8 14 Sudoeste 46 Sur 0.8 -- -- 100
2019-11-24 19:00:00 8.3 20 Sudoeste 62 Sudoeste 0.4 -- -- 100
2019-11-24 18:00:00 7.7 23 Sur 53 Sur 0.2 -- -- 100
2019-11-24 17:00:00 7.3 25 Sur 49 Sur 0.4 -- -- 100
2019-11-24 16:00:00 6.9 24 Sur 54 Sur 0 -- -- 100
2019-11-24 15:00:00 7 14 Sur 54 Sudoeste 0.2 -- -- 100
2019-11-24 14:00:00 6.2 19 Sur 44 Sur 0 -- -- 100
2019-11-24 13:00:00 5.8 10 Sur 30 Sur 0.4 -- -- 100
2019-11-24 12:00:00 5.3 10 Sudoeste 35 Sur 0.2 -- -- 100
2019-11-24 11:00:00 4.3 13 Sur 31 Sudoeste 0 -- -- 100
2019-11-24 10:00:00 3.9 13 Sur 35 Sudoeste 0 -- -- 100
2019-11-24 09:00:00 3.5 9 Sudoeste 27 Sudoeste 0 -- -- 100
2019-11-24 08:00:00 3 6 Sudoeste 23 Sudoeste 0 -- -- 100
2019-11-24 07:00:00 3 9 Sudoeste 21 Sur 0 -- -- 100
2019-11-24 06:00:00 2.7 5 Sudoeste 24 Sur 0 -- -- 100
2019-11-24 05:00:00 2.6 8 Sur 25 Sudoeste 0 -- -- 100
2019-11-24 04:00:00 2.8 7 Sur 23 Sudoeste 0 -- -- 100
2019-11-24 03:00:00 3.2 6 Sur 25 Sudoeste 0 -- -- 100
2019-11-24 02:00:00 3.3 8 Oeste 33 Oeste 0 -- -- 100
2019-11-24 01:00:00 3.4 9 Oeste 31 Sudoeste 0 -- -- 100
2019-11-24 00:00:00 3.3 9 Oeste 31 Oeste 0 -- -- 100
2019-11-23 23:00:00 3.3 13 Oeste 30 Oeste 0 -- -- 100
2019-11-23 22:00:00 3.3 14 Oeste 33 Oeste 0 -- -- 100
2019-11-23 21:00:00 3.5 16 Oeste 40 Oeste 0 -- -- 100
2019-11-23 20:00:00 3.5 13 Oeste 33 Oeste 0 -- -- 100
2019-11-23 19:00:00 3.8 14 Oeste 35 Oeste 0 -- -- 100
2019-11-23 18:00:00 3.9 13 Oeste 32 Oeste 0.2 -- -- 100
2019-11-23 17:00:00 3.9 12 Oeste 40 Noroeste 0.2 -- -- 100
2019-11-23 16:00:00 4.2 14 Oeste 37 Oeste 1.2 -- -- 100
2019-11-23 15:00:00 4 12 Oeste 31 Noroeste 0 -- -- 100
2019-11-23 14:00:00 3.5 14 Oeste 41 Oeste 0.6 -- -- 100
2019-11-23 13:00:00 3.6 14 Oeste 37 Oeste 0 -- -- 100
2019-11-23 12:00:00 3.3 14 Oeste 42 Noroeste 0 -- -- 100
2019-11-23 11:00:00 3 22 Oeste 46 Sudoeste 0 -- -- 100
2019-11-23 10:00:00 2.7 16 Oeste 40 Oeste 0.2 -- -- 100
2019-11-23 09:00:00 2.5 19 Oeste 37 Noroeste 0.6 -- -- 100
2019-11-23 08:00:00 2.4 17 Oeste 40 Oeste 0.2 -- -- 100
2019-11-23 07:00:00 2 17 Oeste 36 Oeste 1 -- -- 100
2019-11-23 06:00:00 1.9 17 Oeste 44 Oeste 0 -- -- 100
2019-11-23 05:00:00 2 18 Oeste 41 Noroeste 0.2 -- -- 100
2019-11-23 04:00:00 2.1 17 Oeste 47 Oeste 1 -- -- 100
2019-11-23 03:00:00 2 20 Oeste 53 Oeste 0.4 -- -- 100
2019-11-23 02:00:00 2.5 26 Oeste 52 Noroeste 4.2 -- -- 100
2019-11-23 01:00:00 2.7 21 Oeste 63 Oeste 4.2 -- -- 100
2019-11-23 00:00:00 2.3 27 Oeste 67 Oeste 4.6 -- -- 100
2019-11-22 23:00:00 2.9 23 Oeste 66 Oeste 3.8 -- -- 100
2019-11-22 22:00:00 4.1 22 Sudoeste 52 Sudoeste 1 -- -- 100
2019-11-22 21:00:00 4.7 18 Sudoeste 46 Sur 1.2 -- -- 100
2019-11-22 20:00:00 5 15 Sur 52 Sudoeste 0.6 -- -- 100
2019-11-22 19:00:00 5.1 14 Sur 47 Oeste 0.4 -- -- 100
2019-11-22 18:00:00 5.1 24 Sudoeste 56 Sudoeste 1.6 -- -- 100
2019-11-22 17:00:00 4.9 19 Sudoeste 49 Sur 0.8 -- -- 100
2019-11-22 16:00:00 4.9 14 Sudoeste 46 Oeste 0.2 -- -- 100
2019-11-22 15:00:00 5.5 14 Sudoeste 47 Oeste 0.4 -- -- 100
2019-11-22 14:00:00 5.3 16 Sur 45 Sudoeste 1.2 -- -- 100
2019-11-22 13:00:00 5.9 12 Sudoeste 66 Sudoeste 1.4 -- -- 100
2019-11-22 12:00:00 7.9 21 Sudoeste 58 Sudoeste 3.6 -- -- 100
2019-11-22 11:00:00 7.7 21 Sur 70 Sudoeste 0.4 -- -- 100
2019-11-22 10:00:00 7.4 29 Sur 66 Sudoeste 0.4 -- -- 100
2019-11-22 09:00:00 5.9 13 Sudeste 42 Sudeste 2.8 -- -- 100
2019-11-22 08:00:00 6.4 18 Sur 45 Sudeste 0 -- -- 98
2019-11-22 07:00:00 5.5 24 Sur 52 Sur 0.2 -- -- 98
2019-11-22 06:00:00 5.2 22 Sur 45 Sudeste 0.4 -- -- 97
2019-11-22 05:00:00 4 10 Sudeste 35 Sur 0.2 -- -- 99
2019-11-22 04:00:00 3.9 14 Sur 32 Sur 0.2 -- -- 98
2019-11-22 03:00:00 3.8 14 Sur 29 Sudeste 0.2 -- -- 95
2019-11-22 02:00:00 4.2 12 Sur 28 Sudeste 0 -- -- 89
2019-11-22 01:00:00 4.2 17 Sur 37 Sur 0 -- -- 89
2019-11-22 00:00:00 3.6 16 Sur 35 Sur 0 -- -- 90
2019-11-21 23:00:00 3.4 19 Sur 38 Sudoeste 0 -- -- 90
2019-11-21 22:00:00 3.2 18 Sur 37 Sur 0 -- -- 95
2019-11-21 21:00:00 3.3 17 Sur 32 Sur 0 -- -- 99
2019-11-21 20:00:00 3.3 12 Sur 28 Sudoeste 0 -- -- 99
2019-11-21 19:00:00 3.3 10 Sur 31 Sudoeste 0 -- -- 97
2019-11-21 18:00:00 3 8 Sur 31 Sur 0.4 -- -- 97
2019-11-21 17:00:00 4.4 10 Sur 30 Sudoeste 0 -- -- 91
2019-11-21 16:00:00 5.2 12 Sur 30 Sur 0 -- -- 89
2019-11-21 15:00:00 5.2 8 Sudoeste 33 Sudoeste 0 -- -- 87
2019-11-21 14:00:00 5.2 12 Sudoeste 32 Sudoeste 0 -- -- 90
2019-11-21 13:00:00 4.8 9 Sur 23 Sudoeste 0 -- -- 98
2019-11-21 12:00:00 3.9 12 Sur 31 Sudoeste 0 -- -- 100
2019-11-21 11:00:00 3.3 8 Sur 27 Oeste 0.2 -- -- 100
2019-11-21 10:00:00 2.7 9 Sudoeste 22 Oeste 0 -- -- 100
2019-11-21 09:00:00 2.2 8 Sudoeste 34 Sudoeste 0 -- -- 100
2019-11-21 08:00:00 2.3 9 Sudoeste 28 Oeste 0 -- -- 100
2019-11-21 07:00:00 2.1 9 Sudoeste 23 Sudoeste 0 -- -- 100
2019-11-21 06:00:00 2.1 10 Sudoeste 27 Sudoeste 0 -- -- 100
2019-11-21 05:00:00 2.2 7 Sudoeste 26 Sudoeste 0.2 -- -- 100
2019-11-21 04:00:00 1.9 10 Sur 25 Oeste 0 -- -- 100
2019-11-21 03:00:00 2.2 8 Sur 26 Oeste 1.4 -- -- 100
2019-11-21 02:00:00 2.9 11 Sudoeste 32 Sudoeste 0 -- -- 100
2019-11-21 01:00:00 2.9 12 Sudoeste 33 Sudoeste 0 -- -- 100
2019-11-21 00:00:00 2.8 12 Sur 30 Sur 0 -- -- 100
2019-11-20 23:00:00 2.6 10 Sur 30 Sudoeste 0.6 -- -- 100
2019-11-20 22:00:00 3 10 Sudoeste 30 Sur 0.2 -- -- 100
2019-11-20 21:00:00 2.9 13 Sur 28 Sur 0 -- -- 100
2019-11-20 20:00:00 3 10 Sur 26 Sudoeste 1.4 -- -- 100
2019-11-20 19:00:00 2.9 9 Sudoeste 33 Sudoeste 0 -- -- 100
2019-11-20 18:00:00 2.6 10 Sudoeste 26 Sudoeste 0.8 -- -- 100
2019-11-20 17:00:00 2.9 13 Sudoeste 37 Oeste 0.2 -- -- 100
2019-11-20 16:00:00 4.5 10 Sudoeste 32 Sur 0 -- -- 92
2019-11-20 15:00:00 5.1 9 Sur 25 Sudoeste 0 -- -- 88
2019-11-20 14:00:00 5.2 13 Sur 30 Sur 0 -- -- 95
2019-11-20 13:00:00 4.6 8 Sur 35 Sudoeste 0 -- -- 100
2019-11-20 12:00:00 4.7 14 Sur 31 Sur 0 -- -- 99
2019-11-20 11:00:00 4.4 12 Sur 32 Sur 0 -- -- 100
2019-11-20 10:00:00 4 14 Sur 31 Sur 0 -- -- 100
2019-11-20 09:00:00 3.7 11 Sudoeste 22 Sudoeste 0 -- -- 100
2019-11-20 08:00:00 4 9 Sur 18 Sudoeste 0 -- -- 100
2019-11-20 07:00:00 3.8 7 Sur 19 Sur 0 -- -- 100
2019-11-20 06:00:00 4.2 6 Sur 21 Sur 0 -- -- 100
2019-11-20 05:00:00 4.2 12 Sur 28 Sur 0 -- -- 100
2019-11-20 04:00:00 4.1 12 Sur 24 Sur 0.2 -- -- 100
2019-11-20 03:00:00 3.5 11 Sur 19 Sur 0 -- -- 100
2019-11-20 02:00:00 3.6 11 Sur 27 Sudeste 0 -- -- 100
2019-11-20 01:00:00 3.2 14 Sur 25 Sudeste 0.2 -- -- 100
2019-11-20 00:00:00 3.3 13 Sur 24 Sudeste 0 -- -- 100
2019-11-19 23:00:00 3.7 12 Sur 23 Sudeste 0.4 -- -- 100
2019-11-19 22:00:00 4.7 15 Sur 33 Sur 0 -- -- 100
2019-11-19 21:00:00 4.5 10 Sur 26 Sur 1.4 -- -- 100
2019-11-19 20:00:00 4.4 10 Sur 22 Sudeste 2 -- -- 100
2019-11-19 19:00:00 3.8 9 Sudeste 19 Sudeste 0 -- -- 100
2019-11-19 18:00:00 4 9 Sudeste 18 Sudeste 0.8 -- -- 100
2019-11-19 17:00:00 4.4 5 Sudeste 13 Este 0.4 -- -- 97
2019-11-19 16:00:00 5.2 8 Sur 14 Sudoeste 0 -- -- 89
2019-11-19 15:00:00 5.8 6 Sur 17 Sudoeste 0 -- -- 87
2019-11-19 14:00:00 5.2 5 Sur 14 Sudoeste 0 -- -- 87
2019-11-19 13:00:00 3.9 5 Sudeste 16 Sudeste 0 -- -- 96
2019-11-19 12:00:00 3.5 6 Sur 13 Sur 0 -- -- 91
2019-11-19 11:00:00 2.6 6 Sudeste 19 Sudeste 0 -- -- 94
2019-11-19 10:00:00 2.1 3 Sudeste 15 Este 0 -- -- 93
2019-11-19 09:00:00 1.8 10 Sudeste 20 Sudeste 0 -- -- 92
2019-11-19 08:00:00 1.5 11 Sudeste 18 Sur 0 -- -- 99
2019-11-19 07:00:00 1.7 8 Sur 26 Sur 0 -- -- 100
2019-11-19 06:00:00 1.8 10 Sur 22 Sudoeste 0 -- -- 100
2019-11-19 05:00:00 1.6 9 Sur 20 Sur 0 -- -- 100
2019-11-19 04:00:00 1.7 7 Sur 21 Sudoeste 0 -- -- 100
2019-11-19 03:00:00 1.4 8 Sur 12 Sudoeste 0 -- -- 100
2019-11-19 02:00:00 1.1 5 Sudeste 18 Oeste 0 -- -- 100
2019-11-19 01:00:00 1.5 10 Sudeste 17 Sudeste 0 -- -- 100
2019-11-19 00:00:00 0.9 8 Sudeste 10 Sudeste 0 -- -- 100
2019-11-18 23:00:00 1 6 Sudeste 13 Sudeste 0 -- -- 100
2019-11-18 22:00:00 1.5 7 Sudeste 13 Sudeste 0 -- -- 100
2019-11-18 21:00:00 1.8 8 Sudeste 12 Sudeste 0 -- -- 100
2019-11-18 20:00:00 1.8 4 Sudeste 9 Sudeste 0 -- -- 100
2019-11-18 19:00:00 1.9 0 Calma 8 Sudeste 0 -- -- 100
2019-11-18 18:00:00 2.7 3 Este 11 Sudeste 0 -- -- 100
2019-11-18 17:00:00 3.2 4 Este 9 Este 0 -- -- 100
2019-11-18 16:00:00 3.3 2 Noroeste 6 Norte 0 -- -- 100
2019-11-18 15:00:00 3.2 2 Norte 10 Norte 0 -- -- 100
2019-11-18 14:00:00 3 3 Noroeste 10 Noroeste 0 -- -- 100
2019-11-18 13:00:00 2.7 4 Norte 10 Oeste 0 -- -- 100
2019-11-18 12:00:00 2.6 3 Noroeste 11 Oeste 0.2 -- -- 100
2019-11-18 11:00:00 1.9 6 Oeste 13 Oeste 0.4 -- -- 100
2019-11-18 10:00:00 1.7 6 Oeste 10 Oeste 0 -- -- 100
2019-11-18 09:00:00 1.1 0 Calma 7 Noroeste 0.2 -- -- 100
2019-11-18 08:00:00 0.9 4 Oeste 8 Oeste 0.4 -- -- 100
2019-11-18 07:00:00 1.2 5 Oeste 12 Oeste 0.2 -- -- 100
2019-11-18 06:00:00 1.3 4 Nordeste 18 Oeste 0.6 -- -- 100
2019-11-18 05:00:00 1.3 8 Oeste 12 Noroeste 0.2 -- -- 100
2019-11-18 04:00:00 1.2 5 Norte 15 Norte 0.2 -- -- 100
2019-11-18 03:00:00 1.1 6 Nordeste 19 Nordeste 0 -- -- 100
2019-11-18 02:00:00 1.2 6 Norte 18 Noroeste 0 -- -- 100
2019-11-18 01:00:00 0.9 8 Norte 23 Norte 0 -- -- 100
2019-11-18 00:00:00 1 6 Nordeste 17 Nordeste 0 -- -- 100
2019-11-17 23:00:00 1.4 7 Nordeste 28 Norte 1 -- -- 100
2019-11-17 22:00:00 2.2 15 Noroeste 28 Noroeste 0.2 -- -- 100
2019-11-17 21:00:00 2.2 12 Noroeste 33 Noroeste 0.6 -- -- 100
2019-11-17 20:00:00 2.5 16 Noroeste 37 Sudoeste 2.6 -- -- 100
2019-11-17 19:00:00 2.5 14 Oeste 32 Sudoeste 1.6 -- -- 100
2019-11-17 18:00:00 2.6 12 Oeste 37 Oeste 0.2 -- -- 100
2019-11-17 17:00:00 2.5 19 Oeste 35 Oeste 0.8 -- -- 100
2019-11-17 16:00:00 2.7 15 Oeste 39 Oeste 0 -- -- 100
2019-11-17 15:00:00 2.6 17 Oeste 41 Sudoeste 0.2 -- -- 100
2019-11-17 14:00:00 3.1 15 Oeste 41 Oeste 0.4 -- -- 100
2019-11-17 13:00:00 3.5 13 Oeste 34 Oeste 1 -- -- 100
2019-11-17 12:00:00 3.7 9 Oeste 30 Oeste 1.8 -- -- 100
2019-11-17 11:00:00 3.5 14 Oeste 32 Oeste 1.4 -- -- 100
2019-11-17 10:00:00 4.1 15 Oeste 40 Oeste 2 -- -- 100
2019-11-17 09:00:00 4 10 Oeste 27 Sudoeste 3 -- -- 100
2019-11-17 08:00:00 3.7 9 Oeste 35 Sudoeste 2.6 -- -- 100
2019-11-17 07:00:00 4.4 9 Sudoeste 31 Sudoeste 3.2 -- -- 100
2019-11-17 06:00:00 4.7 15 Sudoeste 37 Oeste 2.6 -- -- 100
2019-11-17 05:00:00 4.2 13 Sudoeste 33 Sudoeste 2 -- -- 100
2019-11-17 04:00:00 3.7 10 Sudoeste 33 Sudoeste 2 -- -- 100
2019-11-17 03:00:00 3.5 15 Sudoeste 31 Sudoeste 2.6 -- -- 100
2019-11-17 02:00:00 3.3 11 Sudoeste 35 Sudoeste 2.4 -- -- 100
2019-11-17 01:00:00 2.8 12 Sudoeste 27 Sudoeste 2.2 -- -- 100
2019-11-17 00:00:00 2.5 12 Sudoeste 33 Sudoeste 2.6 -- -- 100
2019-11-16 23:00:00 2 13 Sudoeste 27 Sudoeste 1.8 -- -- 100
2019-11-16 22:00:00 1.7 9 Sudoeste 29 Oeste 1.8 -- -- 100
2019-11-16 21:00:00 1.3 10 Sudoeste 30 Sudoeste 1.4 -- -- 100
2019-11-16 20:00:00 0.9 8 Sudoeste 26 Sudoeste 1.2 -- -- 100
2019-11-16 19:00:00 0.8 7 Sur 24 Oeste 1 -- -- 100
2019-11-16 18:00:00 0.8 5 Sur 24 Oeste 0.8 -- -- 100
2019-11-16 17:00:00 0.7 7 Sudoeste 23 Sudoeste 1.2 -- -- 100
2019-11-16 16:00:00 0.7 6 Oeste 20 Sudoeste 1.6 -- -- 100
2019-11-16 15:00:00 0.6 7 Oeste 24 Oeste 1.6 -- -- 100
2019-11-16 14:00:00 0.5 12 Oeste 24 Oeste 1.2 -- -- 100
2019-11-16 13:00:00 0.3 8 Oeste 21 Oeste 0.8 -- -- 100
2019-11-16 12:00:00 0 5 Sudoeste 17 Sudoeste 0.6 -- -- 100
2019-11-16 11:00:00 0 8 Oeste 19 Oeste 0.6 -- -- 100
2019-11-16 10:00:00 -0.1 10 Oeste 21 Oeste 0 -- -- 100
2019-11-16 09:00:00 -0.2 9 Oeste 15 Oeste 0 -- -- 100
2019-11-16 08:00:00 -0.2 10 Oeste 16 Noroeste 0 -- -- 100
2019-11-16 07:00:00 -0.3 11 Oeste 19 Noroeste 0 -- -- 100
2019-11-16 06:00:00 -0.4 8 Oeste 13 Noroeste 0 -- -- 100
2019-11-16 05:00:00 -0.4 8 Oeste 13 Noroeste 0 -- -- 100
2019-11-16 04:00:00 -0.5 9 Noroeste 18 Noroeste 0 -- -- 100
2019-11-16 03:00:00 -0.7 11 Oeste 18 Noroeste 0 -- -- 100
2019-11-16 02:00:00 -0.8 12 Oeste 17 Oeste 0 -- -- 100
2019-11-16 01:00:00 -0.9 10 Oeste 17 Oeste 0 -- -- 100
2019-11-16 00:00:00 -1.1 11 Oeste 18 Oeste 0 -- -- 100
2019-11-15 23:00:00 -1 10 Oeste 18 Oeste 0 -- -- 100
2019-11-15 22:00:00 -0.9 12 Oeste 17 Noroeste 0 -- -- 100
2019-11-15 21:00:00 -0.9 8 Oeste 21 Noroeste 0 -- -- 100
2019-11-15 20:00:00 -0.9 13 Noroeste 33 Oeste 0 -- -- 100
2019-11-15 19:00:00 -0.8 12 Noroeste 28 Noroeste 0.2 -- -- 100
2019-11-15 18:00:00 -0.7 15 Oeste 28 Noroeste 0 -- -- 100
2019-11-15 17:00:00 -0.4 18 Oeste 32 Oeste 0.6 -- -- 100
2019-11-15 16:00:00 -0.1 16 Oeste 26 Noroeste 1.2 -- -- 100
2019-11-15 15:00:00 -0.1 12 Noroeste 25 Oeste 1 -- -- 100
2019-11-15 14:00:00 -0.2 12 Oeste 19 Oeste 0.8 -- -- 100
2019-11-15 13:00:00 -0.5 11 Oeste 19 Oeste 0.4 -- -- 100
2019-11-15 12:00:00 -0.6 13 Oeste 18 Oeste 0 -- -- 100
2019-11-15 11:00:00 -0.8 12 Oeste 19 Oeste 0 -- -- 100
2019-11-15 10:00:00 -0.8 12 Oeste 22 Oeste 0.2 -- -- 100
2019-11-15 09:00:00 -0.9 11 Oeste 26 Noroeste 0 -- -- 100
2019-11-15 08:00:00 -0.8 10 Oeste 21 Noroeste 0 -- -- 100
2019-11-15 07:00:00 -0.9 12 Oeste 20 Noroeste 0 -- -- 100
2019-11-15 06:00:00 -1.1 14 Oeste 28 Oeste 0 -- -- 100
2019-11-15 05:00:00 -1.1 16 Oeste 25 Noroeste 0 -- -- 100
2019-11-15 04:00:00 -1.2 15 Noroeste 27 Noroeste 0 -- -- 100
2019-11-15 03:00:00 -1.2 15 Oeste 28 Noroeste 0 -- -- 100
2019-11-15 02:00:00 -1.1 16 Oeste 33 Oeste 0 -- -- 100
2019-11-15 01:00:00 -0.8 19 Oeste 36 Oeste 0 -- -- 100
2019-11-15 00:00:00 -0.4 21 Oeste 36 Oeste 0 -- -- 100
2019-11-14 23:00:00 -0.2 22 Oeste 41 Noroeste 0.2 -- -- 100
2019-11-14 22:00:00 0.3 26 Oeste 49 Oeste 1.2 -- -- 100
2019-11-14 21:00:00 0.1 24 Oeste 53 Oeste 1 -- -- 100
2019-11-14 20:00:00 0.6 30 Noroeste 57 Noroeste 2.4 -- -- 100
2019-11-14 19:00:00 0.5 32 Oeste 67 Oeste 2.6 -- -- 100
2019-11-14 18:00:00 0.8 30 Oeste 58 Oeste 3.2 -- -- 100
2019-11-14 17:00:00 0.6 19 Noroeste 57 Noroeste 4.2 -- -- 100
2019-11-14 16:00:00 1.2 31 Oeste 65 Noroeste 5.6 -- -- 100
2019-11-14 15:00:00 1.6 30 Oeste 67 Oeste 3.8 -- -- 100
2019-11-14 14:00:00 0.7 26 Oeste 50 Sudoeste 0 -- -- 100
2019-11-14 13:00:00 -0.2 21 Oeste 46 Sudoeste 0 -- -- 100
2019-11-14 12:00:00 -0.5 13 Sur 40 Sur 0 -- -- 100
2019-11-14 11:00:00 -0.8 13 Sudoeste 44 Oeste 0 -- -- 100
2019-11-14 10:00:00 -0.8 11 Sudoeste 28 Oeste 0 -- -- 100
2019-11-14 09:00:00 -0.8 10 Sur 28 Sur 0 -- -- 100
2019-11-14 08:00:00 -0.8 8 Sudoeste 24 Noroeste 0 -- -- 100
2019-11-14 07:00:00 -1 10 Oeste 36 Oeste 0 -- -- 100
2019-11-14 06:00:00 -0.6 8 Oeste 32 Oeste 0 -- -- 100
2019-11-14 05:00:00 -0.2 13 Oeste 31 Oeste 0 -- -- 100
2019-11-14 04:00:00 -0.1 19 Oeste 40 Oeste 0.4 -- -- 100
2019-11-14 03:00:00 0.6 15 Oeste 38 Oeste 0.8 -- -- 100
2019-11-14 02:00:00 0.8 23 Oeste 54 Oeste 1.4 -- -- 100
2019-11-14 01:00:00 2.9 18 Oeste 43 Oeste 2.2 -- -- 100
2019-11-14 00:00:00 3 23 Oeste 54 Oeste 1.6 -- -- 100
2019-11-13 23:00:00 4.4 14 Sur 48 Sur 4.8 -- -- 100
2019-11-13 22:00:00 4.2 14 Sudoeste 46 Sudoeste 0.8 -- -- 100
2019-11-13 21:00:00 4.2 15 Sur 37 Sudoeste 0.4 -- -- 100
2019-11-13 20:00:00 4.4 12 Sur 39 Sudoeste 0 -- -- 100
2019-11-13 19:00:00 4.8 12 Sudoeste 36 Sudoeste 0 -- -- 100
2019-11-13 18:00:00 4.9 12 Sudoeste 34 Sur 0 -- -- 100
2019-11-13 17:00:00 5.2 7 Sur 28 Oeste 0 -- -- 100
2019-11-13 16:00:00 5.2 8 Sudoeste 25 Oeste 0 -- -- 100
2019-11-13 15:00:00 5 10 Oeste 26 Oeste 0 -- -- 100
2019-11-13 14:00:00 4.8 10 Oeste 23 Noroeste 0 -- -- 100
2019-11-13 13:00:00 5.5 8 Noroeste 22 Oeste 0.4 -- -- 100
2019-11-13 12:00:00 6.1 7 Noroeste 17 Noroeste 0 -- -- 100
2019-11-13 11:00:00 6 4 Nordeste 13 Nordeste 0 -- -- 100
2019-11-13 10:00:00 5.9 4 Nordeste 17 Nordeste 0 -- -- 100
2019-11-13 09:00:00 5.4 8 Nordeste 18 Nordeste 0 -- -- 100
2019-11-13 08:00:00 5.8 6 Norte 16 Norte 0.2 -- -- 100
2019-11-13 07:00:00 6.2 7 Noroeste 17 Norte 0 -- -- 100
2019-11-13 06:00:00 6.5 8 Noroeste 19 Noroeste 0.4 -- -- 100
2019-11-13 05:00:00 6.8 7 Norte 21 Norte 0 -- -- 100
2019-11-13 04:00:00 7.4 7 Norte 23 Oeste 0 -- -- 100
2019-11-13 03:00:00 7.8 9 Noroeste 31 Noroeste 0.2 -- -- 100
2019-11-13 02:00:00 9.2 21 Noroeste 45 Oeste 4.4 -- -- 100
2019-11-13 01:00:00 9.8 15 Oeste 50 Noroeste 1 -- -- 100
2019-11-13 00:00:00 9.7 14 Oeste 38 Oeste 8.8 -- -- 100
2019-11-12 23:00:00 9.4 12 Sudoeste 36 Sudoeste 7.8 -- -- 100
2019-11-12 22:00:00 9.3 10 Sudoeste 36 Sudoeste 3.8 -- -- 100
2019-11-12 21:00:00 9.1 14 Sudoeste 39 Sudoeste 3.6 -- -- 100
2019-11-12 20:00:00 8.6 13 Sudoeste 36 Sudoeste 5 -- -- 100
2019-11-12 19:00:00 8.1 16 Sudoeste 46 Sudoeste 6.8 -- -- 100
2019-11-12 18:00:00 7.6 15 Sur 51 Sudoeste 5.6 -- -- 100
2019-11-12 17:00:00 7.2 18 Sur 48 Oeste 4 -- -- 100
2019-11-12 16:00:00 6.4 17 Sudoeste 48 Sudoeste 1.4 -- -- 100
2019-11-12 15:00:00 5.8 14 Sudoeste 41 Sudoeste 1.4 -- -- 100
2019-11-12 14:00:00 5.4 13 Sudoeste 37 Sur 0.6 -- -- 100
2019-11-12 13:00:00 4.9 12 Sudoeste 31 Sudoeste 0.6 -- -- 100
2019-11-12 12:00:00 4.3 8 Sur 23 Sudoeste 0.4 -- -- 100
2019-11-12 11:00:00 4 8 Sur 22 Sudoeste 0.2 -- -- 100
2019-11-12 10:00:00 3.5 6 Sur 19 Oeste 0.4 -- -- 100
2019-11-12 09:00:00 3.2 6 Sudoeste 20 Sudoeste 0.8 -- -- 100
2019-11-12 08:00:00 2.8 6 Sudoeste 18 Oeste 1.2 -- -- 100
2019-11-12 07:00:00 2.9 6 Sudoeste 23 Oeste 0.4 -- -- 100
2019-11-12 06:00:00 3 9 Oeste 23 Oeste 0 -- -- 100
2019-11-12 05:00:00 3 7 Oeste 19 Sudoeste 0 -- -- 100
2019-11-12 04:00:00 2.8 4 Sudoeste 16 Oeste 0 -- -- 100
2019-11-12 03:00:00 2.6 6 Oeste 18 Oeste 0 -- -- 100
2019-11-12 02:00:00 2.8 9 Oeste 21 Oeste 0 -- -- 100
2019-11-12 01:00:00 2.6 11 Oeste 15 Oeste 0 -- -- 100
2019-11-12 00:00:00 2.4 7 Oeste 14 Noroeste 0 -- -- 100
2019-11-11 23:00:00 2.5 6 Noroeste 13 Oeste 0 -- -- 100
2019-11-11 22:00:00 2.3 6 Noroeste 17 Noroeste 0 -- -- 100
2019-11-11 21:00:00 2.3 8 Noroeste 17 Norte 0 -- -- 100
2019-11-11 20:00:00 2.9 4 Nordeste 11 Noroeste 0 -- -- 100
2019-11-11 19:00:00 3.1 4 Norte 18 Norte 0 -- -- 100
2019-11-11 18:00:00 3.9 9 Noroeste 14 Noroeste 0 -- -- 100
2019-11-11 17:00:00 4.8 4 Nordeste 15 Nordeste 0 -- -- 100
2019-11-11 16:00:00 5 5 Nordeste 18 Noroeste 0 -- -- 100
2019-11-11 15:00:00 5.1 9 Norte 25 Nordeste 0 -- -- 100
2019-11-11 14:00:00 5.3 9 Norte 24 Norte 0 -- -- 100
2019-11-11 13:00:00 5.9 7 Nordeste 22 Norte 0 -- -- 100
2019-11-11 12:00:00 5.7 9 Norte 25 Noroeste 0 -- -- 100
2019-11-11 11:00:00 6.1 10 Noroeste 27 Noroeste 0.4 -- -- 100
2019-11-11 10:00:00 6.7 8 Norte 24 Noroeste 0 -- -- 100
2019-11-11 09:00:00 6.7 12 Noroeste 30 Oeste 0.2 -- -- 100
2019-11-11 08:00:00 6.8 15 Oeste 30 Oeste 0.2 -- -- 100
2019-11-11 07:00:00 6.7 14 Oeste 28 Oeste 0.6 -- -- 100
2019-11-11 06:00:00 6.4 12 Oeste 29 Oeste 0.6 -- -- 100
2019-11-11 05:00:00 6 12 Oeste 30 Sudoeste 0.6 -- -- 100
2019-11-11 04:00:00 5.7 14 Oeste 31 Sudoeste 0.8 -- -- 100
2019-11-11 03:00:00 5.3 8 Oeste 18 Oeste 0.4 -- -- 100
2019-11-11 02:00:00 5.1 4 Oeste 13 Oeste 0.2 -- -- 100
2019-11-11 01:00:00 4.7 5 Sudoeste 15 Sudoeste 0 -- -- 100
2019-11-11 00:00:00 4 10 Sudoeste 19 Sudoeste 0.6 -- -- 100
2019-11-10 23:00:00 3.3 7 Sudoeste 13 Sudoeste 0.4 -- -- 100
2019-11-10 22:00:00 2.7 6 Sudoeste 8 Oeste 0.2 -- -- 100
2019-11-10 21:00:00 2.5 3 Noroeste 6 Oeste 0.6 -- -- 100
2019-11-10 20:00:00 1.9 0 Calma 9 Noroeste 0.6 -- -- 100
2019-11-10 19:00:00 1.8 5 Noroeste 17 Oeste 0.6 -- -- 100
2019-11-10 18:00:00 1.7 12 Oeste 23 Noroeste 1.6 -- -- 100
2019-11-10 17:00:00 2.1 12 Noroeste 26 Noroeste 1 -- -- 100
2019-11-10 16:00:00 2.4 14 Oeste 28 Noroeste 1.8 -- -- 100
2019-11-10 15:00:00 2.1 12 Noroeste 32 Oeste 1.6 -- -- 100
2019-11-10 14:00:00 2.1 14 Noroeste 42 Noroeste 1.4 -- -- 100
2019-11-10 13:00:00 2.3 19 Oeste 47 Oeste 1.6 -- -- 100
2019-11-10 12:00:00 2.5 19 Oeste 50 Oeste 2.6 -- -- 100
2019-11-10 11:00:00 2.4 21 Oeste 41 Noroeste 1.2 -- -- 100
2019-11-10 10:00:00 2.2 15 Oeste 46 Noroeste 0.6 -- -- 100
2019-11-10 09:00:00 1.9 23 Oeste 41 Oeste 1.6 -- -- 100
2019-11-10 08:00:00 1.2 19 Oeste 32 Oeste 2.6 -- -- 100
2019-11-10 07:00:00 2 15 Oeste 37 Oeste 0.6 -- -- 100
2019-11-10 06:00:00 2.1 15 Oeste 32 Oeste 1.4 -- -- 100
2019-11-10 05:00:00 2 12 Oeste 34 Oeste 1 -- -- 100
2019-11-10 04:00:00 1.8 9 Oeste 31 Oeste 0.2 -- -- 100
2019-11-10 03:00:00 2 14 Oeste 28 Oeste 0.6 -- -- 100
2019-11-10 02:00:00 2 13 Oeste 26 Oeste 0 -- -- 100
2019-11-10 01:00:00 2 14 Oeste 35 Noroeste 0 -- -- 100
2019-11-10 00:00:00 2.3 15 Oeste 32 Oeste 0 -- -- 100